Weather History for Litchfield, MN

Change the Weather History Date:

Friday, February 21, 2014

  Actual Average Record
Temperature  
Mean Temperature 9 °F -  
Max Temperature 15 °F 32 °F 55 °F (1961)
Min Temperature 3 °F 13 °F -20 °F (1963)
Degree Days  
Heating Degree Days 56    
Moisture  
Dew Point 6 °F    
Average Humidity 84    
Maximum Humidity 92    
Minimum Humidity 79    
Precipitation  
Precipitation 0.00 in - - ()
Sea Level Pressure  
Sea Level Pressure 29.59 in    
Wind  
Wind Speed 19 mph (WNW)    
Max Wind Speed 25 mph    
Max Gust Speed 39 mph    
Averages and records for this station are not official NWS values.
T = Trace of Precipitation, MM = Missing Value Source: NWS Daily Summary

Daily Weather History Graph

Daily Weather History Graph

Search for Another Location

Airport:

Trip Planner

Search our weather history database for the weather conditions in past years. The results will help you decide how hot, cold, wet, or windy it might be!

Date:

Astronomy

Feb. 21, 2014 Rise Set
Actual Time 7:09 AM CST 5:54 PM CST
Civil Twilight 6:39 AM CST 6:24 PM CST
Nautical Twilight 6:05 AM CST 6:58 PM CST
Astronomical Twilight 5:31 AM CST 7:32 PM CST
Moon 12:05 AM CST (2/21) 10:16 AM CST (2/21)
Length of Visible Light 11h 44m
Length of Day
10h 44m
Waning Gibbous, 60% of the Moon is Illuminated
Feb 21
Waning Gibbous
Feb 22
Last Quarter
Mar 1
New
Mar 8
First Quarter
Mar 16
Full

Hourly Weather History & Observations

Time (CST) Temp. Windchill Dew Point Humidity Pressure Visibility Wind Dir Wind Speed Gust Speed Precip Events Conditions
12:12 AM 12.2 °F -7.1 °F 10.4 °F 92% 29.41 in - WNW 23.0 mph 31.1 mph N/A   Overcast
12:33 AM 12.2 °F -6.7 °F 10.4 °F 92% 29.41 in - NW 21.9 mph 33.4 mph N/A   Overcast
12:53 AM 12.2 °F -5.8 °F 10.4 °F 92% 29.41 in - WNW 19.6 mph 32.2 mph N/A   Overcast
1:13 AM 10.4 °F -8.6 °F 8.6 °F 92% 29.41 in - WNW 20.7 mph 26.5 mph N/A   Overcast
1:33 AM 10.4 °F -10.3 °F 8.6 °F 92% 29.41 in - WNW 25.3 mph 31.1 mph N/A   Overcast
1:52 AM 10.4 °F -9.5 °F 6.8 °F 85% 29.41 in - WNW 23.0 mph 39.1 mph N/A   Overcast
2:13 AM 10.4 °F -9.1 °F 6.8 °F 85% 29.42 in - WNW 21.9 mph 29.9 mph N/A   Overcast
2:33 AM 8.6 °F -12.3 °F 6.8 °F 92% 29.43 in - WNW 24.2 mph 29.9 mph N/A   Overcast
2:52 AM 8.6 °F -11.4 °F 6.8 °F 92% 29.43 in - NW 21.9 mph 31.1 mph N/A   Overcast
3:13 AM 8.6 °F -12.3 °F 5.0 °F 85% 29.44 in - WNW 24.2 mph 36.8 mph N/A   Mostly Cloudy
3:33 AM 8.6 °F -11.4 °F 3.2 °F 79% 29.45 in - WNW 21.9 mph 35.7 mph N/A   Mostly Cloudy
3:52 AM 6.8 °F -12.9 °F 3.2 °F 85% 29.45 in - WNW 19.6 mph 32.2 mph N/A   Mostly Cloudy
4:12 AM 6.8 °F -14.3 °F 3.2 °F 85% 29.45 in - WNW 23.0 mph 33.4 mph N/A   Unknown
4:33 AM 6.8 °F -12.9 °F 3.2 °F 85% 29.46 in - WNW 19.6 mph 29.9 mph N/A   Unknown
4:53 AM 6.8 °F -12.9 °F 3.2 °F 85% 29.47 in - WNW 19.6 mph 29.9 mph N/A   Unknown
5:13 AM 6.8 °F -12.4 °F 3.2 °F 85% 29.47 in - WNW 18.4 mph 27.6 mph N/A   Unknown
5:33 AM 6.8 °F -10.7 °F 3.2 °F 85% 29.48 in - WNW 15.0 mph 23.0 mph N/A   Unknown
5:53 AM 5.0 °F -13.6 °F 1.4 °F 85% 29.48 in - WNW 16.1 mph 27.6 mph N/A   Unknown
6:13 AM 3.2 °F -17.1 °F 1.4 °F 92% 29.49 in - WNW 18.4 mph 28.8 mph N/A   Unknown
6:33 AM 3.2 °F -17.6 °F 1.4 °F 92% 29.49 in - WNW 19.6 mph 27.6 mph N/A   Unknown
6:53 AM 3.2 °F -18.1 °F -0.4 °F 85% 29.49 in - WNW 20.7 mph 26.5 mph N/A   Unknown
7:13 AM 3.2 °F -17.6 °F -0.4 °F 85% 29.50 in - WNW 19.6 mph 28.8 mph N/A   Unknown
7:32 AM 3.2 °F -17.1 °F -0.4 °F 85% 29.51 in - WNW 18.4 mph 32.2 mph N/A   Mostly Cloudy
7:53 AM 3.2 °F -16.5 °F -0.4 °F 85% 29.51 in - WNW 17.3 mph 26.5 mph N/A   Unknown
8:13 AM 3.2 °F -17.1 °F -0.4 °F 85% 29.52 in - WNW 18.4 mph 26.5 mph N/A   Unknown
8:33 AM - - - N/A% 29.53 in - WNW 16.1 mph - N/A   Unknown
8:53 AM 3.2 °F -17.1 °F -0.4 °F 85% 29.53 in - West 18.4 mph 26.5 mph N/A   Mostly Cloudy
9:12 AM 3.2 °F -17.1 °F -0.4 °F 85% 29.53 in - WNW 18.4 mph 26.5 mph N/A   Overcast
9:33 AM 5.0 °F -14.2 °F 1.4 °F 85% 29.54 in - WNW 17.3 mph 29.9 mph N/A   Mostly Cloudy
9:52 AM 5.0 °F -17.1 °F 1.4 °F 85% 29.54 in - WNW 24.2 mph 32.2 mph N/A   Mostly Cloudy
10:13 AM - - - N/A% - - North - - N/A   Unknown
10:33 AM 6.8 °F -14.3 °F 1.4 °F 79% 29.55 in - WNW 23.0 mph 29.9 mph N/A   Clear
10:53 AM 6.8 °F -13.8 °F 1.4 °F 79% 29.56 in - WNW 21.9 mph 32.2 mph N/A   Unknown
11:13 AM 8.6 °F -10.0 °F 3.2 °F 79% 29.56 in - WNW 18.4 mph 28.8 mph N/A   Clear
11:32 AM 8.6 °F -11.0 °F 3.2 °F 79% 29.57 in - WNW 20.7 mph 32.2 mph N/A   Clear
11:53 AM 8.6 °F -10.5 °F 3.2 °F 79% 29.58 in - WNW 19.6 mph 31.1 mph N/A   Clear
12:12 PM 10.4 °F -8.6 °F 5.0 °F 79% 29.57 in - WNW 20.7 mph 27.6 mph N/A   Clear
12:33 PM 10.4 °F -8.2 °F 6.8 °F 85% 29.58 in - WNW 19.6 mph 26.5 mph N/A   Clear
12:53 PM 10.4 °F -7.7 °F 6.8 °F 85% 29.58 in - WNW 18.4 mph 27.6 mph N/A   Clear
1:12 PM 12.2 °F -4.3 °F 6.8 °F 79% 29.59 in - WNW 16.1 mph 27.6 mph N/A   Clear
1:33 PM 12.2 °F -4.8 °F 8.6 °F 85% 29.60 in - West 17.3 mph 25.3 mph N/A   Clear
1:53 PM 12.2 °F -5.8 °F 8.6 °F 85% 29.60 in - WNW 19.6 mph 27.6 mph N/A   Clear
2:12 PM 14.0 °F -3.0 °F 10.4 °F 86% 29.60 in - WNW 18.4 mph 26.5 mph N/A   Unknown
2:33 PM 14.0 °F -2.5 °F 8.6 °F 79% 29.61 in - WNW 17.3 mph 27.6 mph N/A   Clear
2:53 PM 15.8 °F 1.4 °F 10.4 °F 79% 29.62 in - WNW 13.8 mph 20.7 mph N/A   Clear
3:13 PM 15.8 °F -0.2 °F 10.4 °F 79% 29.62 in - WNW 17.3 mph 26.5 mph N/A   Clear
3:33 PM 15.8 °F -0.2 °F 10.4 °F 79% 29.63 in - West 17.3 mph 27.6 mph N/A   Clear
3:52 PM 15.8 °F 0.3 °F 10.4 °F 79% 29.64 in - West 16.1 mph 27.6 mph N/A   Clear
4:13 PM 15.8 °F -0.2 °F 10.4 °F 79% 29.65 in - West 17.3 mph 27.6 mph N/A   Clear
4:33 PM 15.8 °F -0.6 °F 10.4 °F 79% 29.66 in - West 18.4 mph 24.2 mph N/A   Clear
4:52 PM 15.8 °F -0.2 °F 10.4 °F 79% 29.67 in - West 17.3 mph 26.5 mph N/A   Clear
5:13 PM 15.8 °F 0.3 °F 10.4 °F 79% 29.67 in - WNW 16.1 mph 24.2 mph N/A   Unknown
5:33 PM 15.8 °F 2.1 °F 10.4 °F 79% 29.68 in - West 12.7 mph 19.6 mph N/A   Unknown
5:52 PM 15.8 °F 2.1 °F 10.4 °F 79% 29.69 in - West 12.7 mph 21.9 mph N/A   Unknown
6:13 PM 15.8 °F 2.7 °F 10.4 °F 79% 29.70 in - West 11.5 mph 19.6 mph N/A   Clear
6:33 PM 14.0 °F 0.5 °F 10.4 °F 86% 29.71 in - West 11.5 mph 18.4 mph N/A   Unknown
6:52 PM 14.0 °F -0.2 °F 10.4 °F 86% 29.72 in - West 12.7 mph 18.4 mph N/A   Unknown
7:13 PM 15.8 °F 0.3 °F 10.4 °F 79% 29.72 in - West 16.1 mph 21.9 mph N/A   Clear
7:33 PM 14.0 °F -1.4 °F 10.4 °F 86% 29.73 in - West 15.0 mph 21.9 mph N/A   Unknown
7:52 PM 14.0 °F -1.4 °F 8.6 °F 79% 29.73 in - West 15.0 mph 19.6 mph N/A   Clear
8:13 PM 14.0 °F -0.8 °F 8.6 °F 79% 29.74 in - West 13.8 mph - N/A   Clear
8:33 PM 12.2 °F -3.1 °F 8.6 °F 85% 29.74 in - West 13.8 mph 23.0 mph N/A   Unknown
8:52 PM 12.2 °F -3.1 °F 8.6 °F 85% 29.75 in - West 13.8 mph - N/A   Clear
9:13 PM 12.2 °F -2.5 °F 8.6 °F 85% 29.76 in - West 12.7 mph 18.4 mph N/A   Clear
9:33 PM 12.2 °F -2.5 °F 8.6 °F 85% 29.76 in - West 12.7 mph 19.6 mph N/A   Unknown
9:52 PM 12.2 °F -3.1 °F 8.6 °F 85% 29.76 in - West 13.8 mph 18.4 mph N/A   Unknown
10:13 PM 12.2 °F -1.8 °F 6.8 °F 79% 29.76 in - WNW 11.5 mph 18.4 mph N/A   Clear
10:33 PM 10.4 °F -4.1 °F 6.8 °F 85% 29.77 in - WNW 11.5 mph 18.4 mph N/A   Unknown
10:52 PM 10.4 °F -4.1 °F 6.8 °F 85% 29.77 in - WNW 11.5 mph 17.3 mph N/A   Unknown
11:13 PM 10.4 °F -4.1 °F 6.8 °F 85% 29.78 in - WNW 11.5 mph - N/A   Unknown
11:33 PM 10.4 °F -3.3 °F 6.8 °F 85% 29.78 in - WNW 10.4 mph 17.3 mph N/A   Unknown
11:52 PM 8.6 °F -5.5 °F 5.0 °F 85% 29.79 in - West 10.4 mph - N/A   Unknown